WZZ2KO EBCI-EGSS

Flight info

Callsign WZZ2KO
Flight time N/A
Altitude 18000
Route CIV Y50 COA L179 SASKI L608 SUMUM Y6 TOSVA
Aircraft A21N/M-SDE2E3FGHIRWXY/LB1

Departure

Time 2026-04-29 15:57
Airport Brussels South Charleroi Airport (EBCI)

Arrival

Time N/A
Airport London Stansted Airport (EGSS)
Time Latitude Longitude Altitude Speed Heading
2026-04-29 15:35 50.46859 4.47040 582 ft 0 kts 335°
2026-04-29 15:46 50.46841 4.47053 574 ft 4 kts 335°
2026-04-29 15:46 50.46822 4.47066 572 ft 4 kts 336°
2026-04-29 15:46 50.46805 4.47074 570 ft 6 kts 277°
2026-04-29 15:47 50.46811 4.47105 570 ft 4 kts 245°
2026-04-29 15:47 50.46819 4.47132 572 ft 0 kts 244°
2026-04-29 15:50 50.46811 4.47106 570 ft 7 kts 245°
2026-04-29 15:51 50.46779 4.46995 573 ft 11 kts 246°
2026-04-29 15:51 50.46750 4.46894 572 ft 9 kts 246°
2026-04-29 15:51 50.46726 4.46810 574 ft 8 kts 243°
2026-04-29 15:51 50.46668 4.46783 570 ft 12 kts 164°
2026-04-29 15:52 50.46607 4.46778 574 ft 8 kts 217°
2026-04-29 15:52 50.46574 4.46687 575 ft 15 kts 245°
2026-04-29 15:52 50.46521 4.46508 573 ft 17 kts 245°
2026-04-29 15:52 50.46478 4.46358 574 ft 14 kts 246°
2026-04-29 15:53 50.46441 4.46235 572 ft 11 kts 245°
2026-04-29 15:53 50.46416 4.46152 576 ft 7 kts 245°
2026-04-29 15:53 50.46398 4.46091 579 ft 10 kts 245°
2026-04-29 15:53 50.46351 4.45922 589 ft 24 kts 246°
2026-04-29 15:54 50.46276 4.45667 613 ft 23 kts 245°
2026-04-29 15:54 50.46223 4.45484 606 ft 15 kts 246°
2026-04-29 15:54 50.46187 4.45355 615 ft 11 kts 246°
2026-04-29 15:54 50.46155 4.45243 612 ft 12 kts 246°
2026-04-29 15:55 50.46116 4.45108 617 ft 15 kts 245°
2026-04-29 15:55 50.46066 4.44941 613 ft 18 kts 245°
2026-04-29 15:55 50.45995 4.44778 608 ft 19 kts 204°
2026-04-29 15:55 50.45882 4.44818 624 ft 15 kts 151°
2026-04-29 15:56 50.45869 4.44874 620 ft 5 kts 73°
2026-04-29 15:56 50.45875 4.44896 611 ft 1 kts 67°
2026-04-29 15:56 50.45903 4.44998 612 ft 38 kts 66°
2026-04-29 15:56 50.46138 4.45808 615 ft 123 kts 65°
2026-04-29 15:57 50.46577 4.47326 985 ft 168 kts 63°
2026-04-29 15:57 50.47178 4.48780 2369 ft 159 kts 56°
2026-04-29 15:57 50.47977 4.50445 2719 ft 223 kts 55°
2026-04-29 15:57 50.48995 4.52639 3314 ft 269 kts 58°
2026-04-29 15:58 50.50250 4.54968 4591 ft 288 kts 40°
2026-04-29 15:58 50.52214 4.55839 6109 ft 310 kts
2026-04-29 15:58 50.54114 4.54451 7163 ft 348 kts 315°
2026-04-29 15:58 50.54998 4.50541 7121 ft 408 kts 272°
2026-04-29 15:59 50.55068 4.46123 7218 ft 386 kts 272°
2026-04-29 15:59 50.55213 4.42165 7664 ft 339 kts 274°
2026-04-29 15:59 50.55300 4.38515 7253 ft 327 kts 274°
2026-04-29 15:59 50.55525 4.35120 7363 ft 300 kts 277°
2026-04-29 16:00 50.55786 4.31939 7432 ft 288 kts 278°
2026-04-29 16:00 50.56051 4.28858 7938 ft 280 kts 278°
2026-04-29 16:00 50.56314 4.25843 8801 ft 279 kts 278°
2026-04-29 16:00 50.56577 4.22797 9936 ft 282 kts 278°
2026-04-29 16:01 50.56835 4.19710 11049 ft 287 kts 278°
2026-04-29 16:01 50.57093 4.16577 12131 ft 291 kts 278°
2026-04-29 16:01 50.57348 4.13389 13180 ft 296 kts 278°
2026-04-29 16:01 50.57601 4.10149 14178 ft 302 kts 278°
2026-04-29 16:02 50.57844 4.06843 15158 ft 305 kts 278°
2026-04-29 16:02 50.58070 4.03531 16111 ft 307 kts 278°
2026-04-29 16:02 50.58289 4.00163 17112 ft 310 kts 278°
2026-04-29 16:02 50.58498 3.96762 18038 ft 314 kts 278°
2026-04-29 16:03 50.58696 3.93365 18895 ft 317 kts 278°
2026-04-29 16:03 50.58901 3.89895 19665 ft 321 kts 278°
2026-04-29 16:03 50.59114 3.86363 20447 ft 325 kts 278°
2026-04-29 16:03 50.59336 3.82786 21168 ft 331 kts 278°
2026-04-29 16:04 50.59569 3.79152 21918 ft 335 kts 278°
2026-04-29 16:04 50.59811 3.75476 22626 ft 341 kts 278°
2026-04-29 16:04 50.60066 3.71750 23365 ft 346 kts 278°